Location: Pilipovskiye Korichintsy
(49.1833°N, 27.4667°E)
Time: 12:48:01
(UTC+00:00)

Cosmos 2233 Rocket - Pass Details

Date: 14 July 2020
Orbit: 954 x 990 km, 82.9° (Epoch: 07 August)

Event Time Altitude Azimuth Distance (km) Brightness Sun altitude
Exits shadow 00:55:02 12° 197° (SSW) 2,573 5.6 -10.8°
Maximum altitude 01:00:52 71° 281° (W) 1,029 4.1 -10.3°
Drops below altitude 10° 01:07:09 10° 6° (N) 2,743 7.3 -9.6°
Sets 01:09:42 0° 9° (N) 3,700 8.1 -9.3°
